User: anonymous   Login
Location: Campo Alegre
(10.4289°N, 66.6519°W)
Time: 08:31:27
(UTC+00:00)
Language:

Cosmos 2278 Rocket - Orbit

View from above orbital plane
View from above orbital plane
View from above satellite
View from above satellite

Ground track
Ground track

The orbit data is extracted from the following two-line orbital elements,

1 23088U 94023B   24203.54527343 -.00000110  00000-0 -32300-4 0  9999
2 23088  70.9984 242.7232 0001704 171.4109 188.7043 14.14859589561767
Epoch (UTC): 21 July 2024 13:05:11
Eccentricity: 0.0001704
inclination: 70.9984°
perigee height: 841 km
apogee height: 844 km
right ascension of ascending node: 242.7232°
argument of perigee: 171.4109°
revolutions per day: 14.14859589
mean anomaly at epoch: 188.7043°
orbit number at epoch: 56176

The dashed part of the orbit path shows where the satellite is in the earth's shadow,  

DLR